SVR1830 URMO-HESH

Flight info

Callsign SVR1830
Flight time 3h 29m
Altitude 35000
Route K0837F350 TAFIK5G TAFIK G914 MOZAT DCT VENFO DCT BINOL G487 ODIRA/N0449F350 UW96 SIN UT61 BAG UW77 AYT UM855 TOMBI M855 RASDA A16 CVO L677 MENLI N697 SISIK V603 ALSOB ALSOB1G
Aircraft A321/M-SDE3FGHIRWY/LB1

Departure

Time 2026-04-20 10:02
Airport Vladikavkaz Beslan International Airport (URMO)

Arrival

Time 2026-04-20 13:32
Airport Sharm El Sheikh International Airport (HESH)
Time Latitude Longitude Altitude Speed Heading
2026-04-20 09:18 43.20277 44.60358 1687 ft 0 kts 218°
2026-04-20 09:19 43.20266 44.60347 1682 ft 3 kts 218°
2026-04-20 09:19 43.20261 44.60341 1682 ft 6 kts 218°
2026-04-20 09:19 43.20262 44.60343 1682 ft 3 kts 218°
2026-04-20 09:20 43.20258 44.60338 1687 ft 0 kts 218°
2026-04-20 09:20 43.20282 44.60363 1687 ft 0 kts 218°
2026-04-20 09:20 43.20309 44.60392 1682 ft 3 kts 218°
2026-04-20 09:50 43.20311 44.60395 1682 ft 2 kts 218°
2026-04-20 09:50 43.20324 44.60442 1681 ft 8 kts 266°
2026-04-20 09:51 43.20296 44.60489 1682 ft 0 kts
2026-04-20 09:54 43.20326 44.60495 1685 ft 8 kts
2026-04-20 09:55 43.20379 44.60512 1687 ft 8 kts 13°
2026-04-20 09:55 43.20430 44.60528 1682 ft 8 kts 12°
2026-04-20 09:55 43.20494 44.60545 1681 ft 11 kts
2026-04-20 09:55 43.20547 44.60478 1682 ft 11 kts 284°
2026-04-20 09:56 43.20561 44.60388 1685 ft 9 kts 282°
2026-04-20 09:56 43.20579 44.60280 1680 ft 15 kts 281°
2026-04-20 09:56 43.20603 44.60118 1673 ft 18 kts 282°
2026-04-20 09:56 43.20627 44.59959 1673 ft 16 kts 282°
2026-04-20 09:57 43.20649 44.59813 1684 ft 15 kts 282°
2026-04-20 09:57 43.20668 44.59677 1677 ft 14 kts 281°
2026-04-20 09:57 43.20687 44.59553 1674 ft 13 kts 282°
2026-04-20 09:57 43.20705 44.59437 1673 ft 12 kts 281°
2026-04-20 09:58 43.20721 44.59322 1679 ft 12 kts 281°
2026-04-20 09:58 43.20736 44.59214 1683 ft 11 kts 281°
2026-04-20 09:58 43.20752 44.59112 1679 ft 11 kts 282°
2026-04-20 09:58 43.20766 44.59001 1672 ft 13 kts 271°
2026-04-20 09:59 43.20752 44.58910 1665 ft 8 kts 284°
2026-04-20 09:59 43.20777 44.58914 1680 ft 2 kts 71°
2026-04-20 09:59 43.20778 44.58920 1668 ft 1 kts 76°
2026-04-20 09:59 43.20777 44.58932 1680 ft 1 kts 93°
2026-04-20 10:00 43.20777 44.58936 1680 ft 2 kts 95°
2026-04-20 10:00 43.20774 44.58962 1679 ft 2 kts 102°
2026-04-20 10:00 43.20774 44.58964 1678 ft 0 kts 103°
2026-04-20 10:01 43.20761 44.59043 1672 ft 34 kts 102°
2026-04-20 10:02 43.20666 44.59685 1673 ft 102 kts 101°
2026-04-20 10:02 43.20484 44.60910 1682 ft 158 kts 101°
2026-04-20 10:02 43.20213 44.62545 2050 ft 181 kts 104°
2026-04-20 10:02 43.19958 44.64223 3022 ft 178 kts 100°
2026-04-20 10:03 43.19714 44.65902 3746 ft 184 kts 99°
2026-04-20 10:03 43.19451 44.67712 4004 ft 204 kts 99°
2026-04-20 10:03 43.19163 44.69686 4174 ft 224 kts 99°
2026-04-20 10:03 43.18841 44.71885 4291 ft 248 kts 100°
2026-04-20 10:04 43.18466 44.74285 4642 ft 264 kts 105°
2026-04-20 10:04 43.17485 44.76420 5168 ft 271 kts 141°
2026-04-20 10:04 43.15774 44.77428 5806 ft 272 kts 176°
2026-04-20 10:04 43.13945 44.76942 6463 ft 271 kts 210°
2026-04-20 10:05 43.12633 44.75136 7069 ft 271 kts 245°
2026-04-20 10:05 43.12106 44.72678 7699 ft 271 kts 262°
2026-04-20 10:05 43.11911 44.70114 8362 ft 271 kts 265°
2026-04-20 10:05 43.11760 44.67542 9013 ft 272 kts 265°
2026-04-20 10:06 43.11611 44.64955 9633 ft 274 kts 265°
2026-04-20 10:06 43.11422 44.62358 10219 ft 274 kts 263°
2026-04-20 10:06 43.11326 44.59742 10768 ft 277 kts 271°
2026-04-20 10:06 43.11578 44.57120 11311 ft 279 kts 278°
2026-04-20 10:07 43.11929 44.54494 11856 ft 281 kts 278°
2026-04-20 10:07 43.12308 44.51859 12413 ft 283 kts 279°
2026-04-20 10:07 43.12813 44.49243 12943 ft 288 kts 289°
2026-04-20 10:07 43.13777 44.46815 13477 ft 294 kts 302°
2026-04-20 10:08 43.15006 44.44560 13976 ft 297 kts 303°
2026-04-20 10:08 43.16246 44.42283 14441 ft 299 kts 303°
2026-04-20 10:08 43.17486 44.39989 14930 ft 301 kts 302°
2026-04-20 10:08 43.18729 44.37678 15387 ft 302 kts 302°
2026-04-20 10:09 43.19978 44.35352 15856 ft 304 kts 302°
2026-04-20 10:09 43.21236 44.33013 16325 ft 306 kts 302°
2026-04-20 10:09 43.22501 44.30663 16782 ft 307 kts 302°
2026-04-20 10:09 43.23775 44.28296 17235 ft 309 kts 302°
2026-04-20 10:10 43.25057 44.25913 17694 ft 311 kts 302°
2026-04-20 10:10 43.26342 44.23519 18142 ft 313 kts 301°
2026-04-20 10:10 43.27632 44.21111 18494 ft 315 kts 302°
2026-04-20 10:10 43.28940 44.18672 18754 ft 321 kts 302°
2026-04-20 10:11 43.30284 44.16158 18869 ft 332 kts 302°
2026-04-20 10:11 43.31672 44.13554 18984 ft 343 kts 302°
2026-04-20 10:11 43.33103 44.10868 19109 ft 354 kts 302°
2026-04-20 10:11 43.34577 44.08103 19234 ft 364 kts 302°
2026-04-20 10:12 43.36091 44.05259 19353 ft 374 kts 302°
2026-04-20 10:12 43.37643 44.02342 19476 ft 383 kts 302°
2026-04-20 10:12 43.39230 43.99353 19598 ft 391 kts 302°
2026-04-20 10:12 43.40846 43.96311 19822 ft 396 kts 301°
2026-04-20 10:13 43.42234 43.93061 20143 ft 392 kts 289°
2026-04-20 10:13 43.43317 43.89629 20568 ft 391 kts 289°
2026-04-20 10:13 43.44403 43.86197 20934 ft 392 kts 289°
2026-04-20 10:13 43.45496 43.82745 21281 ft 394 kts 289°
2026-04-20 10:14 43.46591 43.79279 21620 ft 396 kts 289°
2026-04-20 10:14 43.47688 43.75794 21951 ft 398 kts 289°
2026-04-20 10:14 43.48789 43.72287 22275 ft 400 kts 288°
2026-04-20 10:14 43.49895 43.68762 22587 ft 402 kts 288°
2026-04-20 10:15 43.51008 43.65227 22921 ft 404 kts 289°
2026-04-20 10:15 43.52362 43.61801 23225 ft 410 kts 296°
2026-04-20 10:15 43.53838 43.58429 23536 ft 412 kts 296°
2026-04-20 10:15 43.55321 43.55035 23803 ft 414 kts 295°
2026-04-20 10:16 43.56807 43.51625 24072 ft 415 kts 295°
2026-04-20 10:16 43.58293 43.48202 24336 ft 417 kts 295°
2026-04-20 10:16 43.59783 43.44765 24618 ft 418 kts 295°
2026-04-20 10:16 43.61278 43.41317 24895 ft 420 kts 295°
2026-04-20 10:17 43.62779 43.37855 25161 ft 421 kts 295°
2026-04-20 10:17 43.64282 43.34377 25443 ft 422 kts 295°
2026-04-20 10:17 43.65786 43.30888 25716 ft 423 kts 295°
2026-04-20 10:17 43.67293 43.27388 25973 ft 425 kts 295°
2026-04-20 10:18 43.68807 43.23871 26235 ft 426 kts 295°
2026-04-20 10:18 43.70321 43.20347 26490 ft 427 kts 294°
2026-04-20 10:18 43.71602 43.16677 26731 ft 422 kts 285°
2026-04-20 10:18 43.72427 43.12870 26993 ft 417 kts 276°
2026-04-20 10:19 43.72815 43.08933 27231 ft 412 kts 268°
2026-04-20 10:19 43.72819 43.04978 27468 ft 411 kts 264°
2026-04-20 10:19 43.72773 43.01020 27738 ft 412 kts 264°
2026-04-20 10:19 43.72728 42.97053 27993 ft 413 kts 264°
2026-04-20 10:20 43.72684 42.93076 28232 ft 414 kts 264°
2026-04-20 10:20 43.72639 42.89085 28484 ft 416 kts 264°
2026-04-20 10:20 43.72592 42.85085 28704 ft 417 kts 264°
2026-04-20 10:20 43.72545 42.81078 28927 ft 418 kts 264°
2026-04-20 10:21 43.72497 42.77054 29141 ft 419 kts 264°
2026-04-20 10:21 43.72446 42.73028 29349 ft 419 kts 264°
2026-04-20 10:21 43.72397 42.69005 29637 ft 418 kts 264°
2026-04-20 10:21 43.72349 42.64990 29951 ft 417 kts 264°
2026-04-20 10:22 43.72299 42.60990 30218 ft 416 kts 264°
2026-04-20 10:22 43.72246 42.56997 30453 ft 415 kts 264°
2026-04-20 10:22 43.72190 42.53008 30683 ft 415 kts 264°
2026-04-20 10:22 43.72134 42.49015 30953 ft 414 kts 264°
2026-04-20 10:23 43.72077 42.45038 31168 ft 414 kts 264°
2026-04-20 10:23 43.72016 42.41059 31353 ft 414 kts 264°
2026-04-20 10:23 43.71953 42.37083 31526 ft 414 kts 264°
2026-04-20 10:23 43.71889 42.33100 31709 ft 414 kts 264°
2026-04-20 10:24 43.71823 42.29127 31898 ft 414 kts 264°
2026-04-20 10:24 43.71758 42.25147 32090 ft 414 kts 265°
2026-04-20 10:24 43.71690 42.21164 32270 ft 414 kts 265°
2026-04-20 10:24 43.71620 42.17187 32448 ft 414 kts 265°
2026-04-20 10:25 43.71549 42.13205 32640 ft 414 kts 265°
2026-04-20 10:25 43.71477 42.09231 32828 ft 414 kts 265°
2026-04-20 10:25 43.71405 42.05252 33019 ft 414 kts 265°
2026-04-20 10:25 43.71335 42.01283 33194 ft 413 kts 265°
2026-04-20 10:26 43.71261 41.97323 33366 ft 414 kts 265°
2026-04-20 10:26 43.71181 41.93317 33505 ft 415 kts 265°
2026-04-20 10:26 43.71046 41.86621 33729 ft 417 kts 265°
2026-04-20 10:27 43.70967 41.82675 33898 ft 417 kts 265°
2026-04-20 10:27 43.70885 41.78663 33950 ft 417 kts 265°
2026-04-20 10:27 43.70721 41.70635 33957 ft 418 kts 265°
2026-04-20 10:28 43.70545 41.62598 33947 ft 418 kts 265°
2026-04-20 10:28 43.70356 41.54558 33951 ft 419 kts 265°
2026-04-20 10:29 43.70170 41.46510 33954 ft 420 kts 265°
2026-04-20 10:29 43.69982 41.38434 33956 ft 421 kts 265°
2026-04-20 10:30 43.69783 41.30353 33959 ft 421 kts 265°
2026-04-20 10:30 43.69576 41.22267 33966 ft 421 kts 265°
2026-04-20 10:31 43.69364 41.14175 33968 ft 422 kts 265°
2026-04-20 10:31 43.69147 41.06072 33969 ft 422 kts 265°
2026-04-20 10:32 43.68922 40.97968 33992 ft 422 kts 266°
2026-04-20 10:32 43.68691 40.89861 33987 ft 423 kts 266°
2026-04-20 10:33 43.68598 40.81724 33997 ft 424 kts 268°
2026-04-20 10:33 43.68691 40.73579 33996 ft 424 kts 269°
2026-04-20 10:34 43.68779 40.65438 33986 ft 424 kts 269°
2026-04-20 10:35 43.68821 40.53213 33998 ft 424 kts 268°
2026-04-20 10:35 43.68829 40.45067 34011 ft 424 kts 268°
2026-04-20 10:36 43.68838 40.36914 34026 ft 425 kts 268°
2026-04-20 10:36 43.68842 40.28758 34026 ft 425 kts 268°
2026-04-20 10:37 43.68833 40.20609 34025 ft 424 kts 268°
2026-04-20 10:37 43.68626 40.12478 34028 ft 423 kts 259°
2026-04-20 10:38 43.66856 40.04792 34031 ft 421 kts 245°
2026-04-20 10:38 43.64444 39.97409 34031 ft 422 kts 245°
2026-04-20 10:39 43.62038 39.90029 34050 ft 422 kts 246°
2026-04-20 10:39 43.59626 39.82659 34060 ft 421 kts 246°
2026-04-20 10:40 43.57213 39.75308 34073 ft 421 kts 246°
2026-04-20 10:40 43.54813 39.68007 34070 ft 420 kts 246°
2026-04-20 10:41 43.52383 39.60681 34068 ft 420 kts 245°
2026-04-20 10:41 43.49937 39.53374 34066 ft 420 kts 245°
2026-04-20 10:42 43.47493 39.46058 34054 ft 420 kts 245°
2026-04-20 10:42 43.45049 39.38740 34055 ft 421 kts 245°
2026-04-20 10:43 43.42588 39.31426 34062 ft 421 kts 245°
2026-04-20 10:43 43.40128 39.24116 34066 ft 421 kts 245°
2026-04-20 10:44 43.37664 39.16803 34065 ft 422 kts 245°
2026-04-20 10:44 43.35187 39.09494 34069 ft 422 kts 245°
2026-04-20 10:45 43.32919 39.02057 34070 ft 422 kts 249°
2026-04-20 10:45 43.30874 38.94492 34075 ft 422 kts 250°
2026-04-20 10:46 43.28831 38.86936 34085 ft 422 kts 250°
2026-04-20 10:46 43.26727 38.79415 34076 ft 422 kts 249°
2026-04-20 10:47 43.24580 38.71916 34076 ft 422 kts 249°
2026-04-20 10:47 43.22407 38.64429 34078 ft 422 kts 249°
2026-04-20 10:48 43.20237 38.56946 34082 ft 422 kts 249°
2026-04-20 10:48 43.18072 38.49466 34079 ft 423 kts 249°
2026-04-20 10:49 43.15901 38.41974 34072 ft 423 kts 249°
2026-04-20 10:49 43.13715 38.34486 34078 ft 424 kts 249°
2026-04-20 10:50 43.11524 38.26999 34083 ft 424 kts 249°
2026-04-20 10:50 43.09326 38.19516 34075 ft 424 kts 249°
2026-04-20 10:51 43.07128 38.12022 34076 ft 425 kts 249°
2026-04-20 10:51 43.04948 38.04510 34076 ft 425 kts 249°
2026-04-20 10:52 43.02765 37.96995 34079 ft 425 kts 249°
2026-04-20 10:52 43.00560 37.89488 34078 ft 426 kts 249°
2026-04-20 10:53 42.98337 37.81995 34067 ft 426 kts 249°
2026-04-20 10:53 42.96099 37.74489 34064 ft 427 kts 249°
2026-04-20 10:54 42.93867 37.67026 34076 ft 428 kts 249°
2026-04-20 10:54 42.91613 37.59517 34081 ft 428 kts 248°
2026-04-20 10:55 42.89346 37.52008 34075 ft 428 kts 249°
2026-04-20 10:55 42.87077 37.44495 34075 ft 429 kts 249°
2026-04-20 10:56 42.84805 37.36972 34081 ft 429 kts 249°
2026-04-20 10:56 42.82524 37.29447 34084 ft 430 kts 248°
2026-04-20 10:57 42.80230 37.21932 34090 ft 430 kts 249°
2026-04-20 10:57 42.77934 37.14417 34081 ft 430 kts 249°
2026-04-20 10:58 42.75622 37.06893 34084 ft 431 kts 249°
2026-04-20 10:58 42.73313 36.99374 34086 ft 431 kts 248°
2026-04-20 10:59 42.70995 36.91853 34088 ft 431 kts 248°
2026-04-20 10:59 42.68484 36.84437 34082 ft 432 kts 245°
2026-04-20 11:00 42.65772 36.77142 34085 ft 433 kts 244°
2026-04-20 11:00 42.63037 36.69862 34087 ft 433 kts 245°
2026-04-20 11:01 42.60357 36.62553 34094 ft 433 kts 245°
2026-04-20 11:01 42.57695 36.55216 34094 ft 433 kts 245°
2026-04-20 11:02 42.55016 36.47888 34095 ft 433 kts 245°
2026-04-20 11:02 42.52329 36.40570 34096 ft 433 kts 245°
2026-04-20 11:03 42.49632 36.33264 34097 ft 433 kts 245°
2026-04-20 11:03 42.46951 36.26015 34096 ft 433 kts 245°
2026-04-20 11:04 42.44253 36.18722 34094 ft 434 kts 245°
2026-04-20 11:04 42.41544 36.11420 34098 ft 434 kts 245°
2026-04-20 11:05 42.38828 36.04134 34100 ft 434 kts 245°
2026-04-20 11:05 42.36107 35.96850 34090 ft 434 kts 245°
2026-04-20 11:06 42.33379 35.89561 34092 ft 435 kts 245°
2026-04-20 11:06 42.30644 35.82272 34098 ft 435 kts 245°
2026-04-20 11:07 42.27904 35.74989 34100 ft 435 kts 245°
2026-04-20 11:07 42.25160 35.67699 34095 ft 435 kts 245°
2026-04-20 11:08 42.22405 35.60420 34098 ft 436 kts 245°
2026-04-20 11:08 42.19643 35.53141 34100 ft 436 kts 245°
2026-04-20 11:09 42.16888 35.45885 34107 ft 436 kts 245°
2026-04-20 11:09 42.14114 35.38604 34105 ft 436 kts 245°
2026-04-20 11:10 42.11347 35.31332 34121 ft 435 kts 245°
2026-04-20 11:10 42.08596 35.24083 34129 ft 435 kts 245°
2026-04-20 11:11 42.05839 35.16846 34135 ft 434 kts 245°
2026-04-20 11:11 42.03001 35.09673 34124 ft 436 kts 239°
2026-04-20 11:12 41.98956 35.03564 34128 ft 441 kts 225°
2026-04-20 11:12 41.95145 34.99004 34126 ft 441 kts 225°
2026-04-20 11:13 41.90565 34.93516 34112 ft 441 kts 225°
2026-04-20 11:13 41.85984 34.88025 34104 ft 441 kts 225°
2026-04-20 11:14 41.81400 34.82550 34089 ft 441 kts 225°
2026-04-20 11:14 41.76811 34.77088 34082 ft 441 kts 225°
2026-04-20 11:15 41.72228 34.71632 34063 ft 441 kts 225°
2026-04-20 11:15 41.67627 34.66167 34057 ft 442 kts 225°
2026-04-20 11:16 41.63025 34.60719 34050 ft 442 kts 225°
2026-04-20 11:16 41.58417 34.55277 34034 ft 442 kts 225°
2026-04-20 11:17 41.53818 34.49837 34036 ft 442 kts 225°
2026-04-20 11:17 41.49228 34.44379 34033 ft 442 kts 225°
2026-04-20 11:18 41.44642 34.38919 34021 ft 442 kts 225°
2026-04-20 11:18 41.40083 34.33512 34024 ft 442 kts 225°
2026-04-20 11:19 41.35484 34.28085 34016 ft 442 kts 225°
2026-04-20 11:19 41.30872 34.22669 34021 ft 442 kts 225°
2026-04-20 11:20 41.26256 34.17251 34011 ft 443 kts 225°
2026-04-20 11:20 41.21623 34.11827 34010 ft 444 kts 225°
2026-04-20 11:21 41.16983 34.06411 34004 ft 444 kts 225°
2026-04-20 11:21 41.12331 34.00998 34032 ft 445 kts 225°
2026-04-20 11:22 41.07687 33.95596 34027 ft 444 kts 225°
2026-04-20 11:22 41.03050 33.90206 34021 ft 444 kts 225°
2026-04-20 11:23 40.98389 33.84802 34015 ft 444 kts 225°
2026-04-20 11:23 40.93738 33.79423 34010 ft 444 kts 225°
2026-04-20 11:24 40.89081 33.74060 34005 ft 444 kts 225°
2026-04-20 11:24 40.84423 33.68698 34007 ft 444 kts 225°
2026-04-20 11:25 40.79765 33.63338 34016 ft 444 kts 225°
2026-04-20 11:25 40.75111 33.57993 33999 ft 444 kts 224°
2026-04-20 11:26 40.70448 33.52655 34005 ft 444 kts 225°
2026-04-20 11:26 40.65822 33.47360 34002 ft 444 kts 224°
2026-04-20 11:27 40.61151 33.42039 33999 ft 444 kts 224°
2026-04-20 11:27 40.56450 33.36690 34008 ft 444 kts 224°
2026-04-20 11:28 40.51808 33.31405 34017 ft 444 kts 224°
2026-04-20 11:28 40.47135 33.26103 34008 ft 444 kts 224°
2026-04-20 11:29 40.42467 33.20811 34019 ft 443 kts 224°
2026-04-20 11:29 40.37797 33.15533 34028 ft 443 kts 224°
2026-04-20 11:30 40.33118 33.10273 34025 ft 443 kts 224°
2026-04-20 11:30 40.28450 33.05012 34034 ft 442 kts 224°
2026-04-20 11:31 40.23784 32.99753 34044 ft 443 kts 224°
2026-04-20 11:31 40.19103 32.94509 34038 ft 443 kts 224°
2026-04-20 11:32 40.14426 32.89276 34042 ft 442 kts 224°
2026-04-20 11:32 40.09747 32.84057 34042 ft 442 kts 224°
2026-04-20 11:33 40.04702 32.79420 34023 ft 448 kts 210°
2026-04-20 11:33 39.99152 32.75705 34018 ft 449 kts 211°
2026-04-20 11:34 39.93596 32.71990 34016 ft 449 kts 211°
2026-04-20 11:34 39.88033 32.68273 34022 ft 449 kts 211°
2026-04-20 11:35 39.82478 32.64561 34027 ft 449 kts 211°
2026-04-20 11:35 39.76912 32.60843 34021 ft 449 kts 211°
2026-04-20 11:36 39.71357 32.57141 34022 ft 449 kts 211°
2026-04-20 11:36 39.65796 32.53445 34027 ft 449 kts 210°
2026-04-20 11:37 39.60234 32.49765 34035 ft 449 kts 210°
2026-04-20 11:37 39.51893 32.44246 34028 ft 449 kts 211°
2026-04-20 11:38 39.46323 32.40567 34033 ft 449 kts 211°
2026-04-20 11:38 39.40759 32.36900 34025 ft 449 kts 211°
2026-04-20 11:39 39.35182 32.33238 34030 ft 449 kts 210°
2026-04-20 11:39 39.29605 32.29590 34039 ft 449 kts 210°
2026-04-20 11:40 39.24019 32.25963 34035 ft 449 kts 210°
2026-04-20 11:40 39.18439 32.22348 34042 ft 449 kts 210°
2026-04-20 11:41 39.12859 32.18729 34043 ft 449 kts 210°
2026-04-20 11:41 39.07317 32.15136 34036 ft 449 kts 210°
2026-04-20 11:42 39.01738 32.11528 34039 ft 449 kts 210°
2026-04-20 11:42 38.96160 32.07934 34039 ft 449 kts 210°
2026-04-20 11:43 38.90581 32.04345 34034 ft 448 kts 210°
2026-04-20 11:43 38.85003 32.00761 34039 ft 448 kts 210°
2026-04-20 11:44 38.79432 31.97187 34042 ft 448 kts 210°
2026-04-20 11:44 38.73865 31.93617 34032 ft 447 kts 210°
2026-04-20 11:45 38.68299 31.90045 34035 ft 447 kts 210°
2026-04-20 11:45 38.62731 31.86484 34034 ft 447 kts 210°
2026-04-20 11:46 38.57157 31.82940 34032 ft 447 kts 210°
2026-04-20 11:46 38.51594 31.79402 34034 ft 446 kts 210°
2026-04-20 11:47 38.46041 31.75871 34039 ft 446 kts 210°
2026-04-20 11:47 38.40491 31.72353 34035 ft 445 kts 210°
2026-04-20 11:48 38.34948 31.68848 34037 ft 445 kts 210°
2026-04-20 11:48 38.29409 31.65349 34033 ft 444 kts 210°
2026-04-20 11:49 38.23872 31.61854 34033 ft 444 kts 210°
2026-04-20 11:49 38.18336 31.58371 34032 ft 444 kts 210°
2026-04-20 11:50 38.12801 31.54894 34026 ft 444 kts 210°
2026-04-20 11:50 38.07250 31.51459 34013 ft 444 kts 209°
2026-04-20 11:51 38.01667 31.48118 34021 ft 443 kts 208°
2026-04-20 11:51 37.96087 31.44799 34018 ft 443 kts 209°
2026-04-20 11:52 37.90523 31.41461 34007 ft 442 kts 209°
2026-04-20 11:52 37.84977 31.38130 34011 ft 442 kts 209°
2026-04-20 11:53 37.79423 31.34809 34005 ft 441 kts 209°
2026-04-20 11:53 37.73909 31.31515 33998 ft 441 kts 209°
2026-04-20 11:54 37.68370 31.28221 33991 ft 440 kts 209°
2026-04-20 11:54 37.62836 31.24928 33992 ft 440 kts 209°
2026-04-20 11:55 37.57311 31.21640 33979 ft 439 kts 209°
2026-04-20 11:55 37.51797 31.18367 33968 ft 438 kts 209°
2026-04-20 11:56 37.46291 31.15101 33963 ft 437 kts 209°
2026-04-20 11:56 37.40789 31.11843 33944 ft 437 kts 209°
2026-04-20 11:57 37.35291 31.08589 33945 ft 436 kts 210°
2026-04-20 11:57 37.29921 31.05075 33939 ft 435 kts 213°
2026-04-20 11:58 37.24636 31.01386 33927 ft 434 kts 213°
2026-04-20 11:58 37.19338 30.97735 33907 ft 434 kts 212°
2026-04-20 11:59 37.14020 30.94149 33921 ft 434 kts 212°
2026-04-20 11:59 37.08692 30.90576 33931 ft 434 kts 212°
2026-04-20 12:00 37.04265 30.87606 33916 ft 434 kts 212°
2026-04-20 12:00 36.98963 30.84050 33937 ft 434 kts 212°
2026-04-20 12:01 36.93511 30.80752 33940 ft 439 kts 202°
2026-04-20 12:01 36.87426 30.79596 33928 ft 449 kts 183°
2026-04-20 12:02 36.81166 30.79816 33930 ft 450 kts 183°
2026-04-20 12:02 36.74894 30.80036 33931 ft 451 kts 183°
2026-04-20 12:03 36.68411 30.80265 33933 ft 451 kts 183°
2026-04-20 12:03 36.62135 30.80481 33932 ft 451 kts 183°
2026-04-20 12:04 36.55861 30.80703 33943 ft 451 kts 183°
2026-04-20 12:04 36.49584 30.80919 33942 ft 451 kts 183°
2026-04-20 12:05 36.43312 30.81128 33952 ft 451 kts 183°
2026-04-20 12:05 36.37048 30.81331 33939 ft 450 kts 183°
2026-04-20 12:06 36.30788 30.81544 33963 ft 450 kts 183°
2026-04-20 12:06 36.24521 30.81763 33966 ft 450 kts 183°
2026-04-20 12:07 36.18253 30.81976 33957 ft 451 kts 184°
2026-04-20 12:07 36.11985 30.82180 33969 ft 451 kts 184°
2026-04-20 12:08 36.05710 30.82388 33975 ft 451 kts 184°
2026-04-20 12:08 35.99441 30.82654 33965 ft 452 kts 183°
2026-04-20 12:09 35.87061 30.83485 33985 ft 452 kts 182°
2026-04-20 12:10 35.80783 30.83871 33986 ft 452 kts 182°
2026-04-20 12:10 35.74508 30.84246 33982 ft 452 kts 183°
2026-04-20 12:11 35.68225 30.84611 33988 ft 452 kts 183°
2026-04-20 12:11 35.61941 30.84982 33988 ft 452 kts 183°
2026-04-20 12:12 35.55667 30.85271 33975 ft 451 kts 185°
2026-04-20 12:12 35.49392 30.85446 33983 ft 451 kts 185°
2026-04-20 12:13 35.43118 30.85618 33988 ft 451 kts 185°
2026-04-20 12:13 35.36838 30.85827 33993 ft 451 kts 184°
2026-04-20 12:14 35.30559 30.86048 33980 ft 452 kts 185°
2026-04-20 12:14 35.24275 30.86262 33987 ft 452 kts 185°
2026-04-20 12:15 35.17985 30.86467 33994 ft 452 kts 185°
2026-04-20 12:15 35.11697 30.86676 33979 ft 452 kts 185°
2026-04-20 12:16 35.05415 30.86891 33996 ft 451 kts 185°
2026-04-20 12:16 34.99135 30.87100 34004 ft 451 kts 185°
2026-04-20 12:17 34.92862 30.87299 33998 ft 451 kts 185°
2026-04-20 12:17 34.86592 30.87508 34000 ft 450 kts 185°
2026-04-20 12:18 34.80328 30.87713 34006 ft 450 kts 185°
2026-04-20 12:18 34.74069 30.87929 34007 ft 450 kts 185°
2026-04-20 12:19 34.67810 30.88143 33985 ft 450 kts 185°
2026-04-20 12:19 34.61556 30.88344 33991 ft 450 kts 186°
2026-04-20 12:20 34.55303 30.88594 34005 ft 450 kts 185°
2026-04-20 12:20 34.49032 30.88928 34007 ft 451 kts 184°
2026-04-20 12:21 34.42767 30.89263 33991 ft 450 kts 185°
2026-04-20 12:21 34.36515 30.89572 34001 ft 450 kts 185°
2026-04-20 12:22 34.30257 30.89882 34007 ft 450 kts 185°
2026-04-20 12:22 34.24000 30.90186 34008 ft 450 kts 185°
2026-04-20 12:23 34.17744 30.90519 34008 ft 450 kts 185°
2026-04-20 12:23 34.11495 30.90875 34009 ft 450 kts 184°
2026-04-20 12:24 34.05265 30.91235 34009 ft 450 kts 184°
2026-04-20 12:24 33.98966 30.91578 33984 ft 450 kts 185°
2026-04-20 12:25 33.92716 30.91912 33998 ft 449 kts 185°
2026-04-20 12:25 33.86467 30.92155 34005 ft 449 kts 186°
2026-04-20 12:26 33.80274 30.92362 34009 ft 449 kts 186°
2026-04-20 12:26 33.74030 30.92586 33998 ft 449 kts 186°
2026-04-20 12:27 33.67785 30.92827 34006 ft 449 kts 185°
2026-04-20 12:27 33.61556 30.93068 34008 ft 449 kts 186°
2026-04-20 12:28 33.55312 30.93299 33974 ft 449 kts 186°
2026-04-20 12:28 33.49071 30.93543 33990 ft 448 kts 185°
2026-04-20 12:29 33.42829 30.93782 34004 ft 448 kts 186°
2026-04-20 12:29 33.36598 30.94009 34008 ft 448 kts 186°
2026-04-20 12:30 33.30324 30.94241 33999 ft 448 kts 186°
2026-04-20 12:30 33.24098 30.94480 34016 ft 448 kts 186°
2026-04-20 12:31 33.17869 30.94707 34017 ft 448 kts 186°
2026-04-20 12:31 33.11691 30.94930 34016 ft 448 kts 186°
2026-04-20 12:32 33.05454 30.95345 34002 ft 451 kts 182°
2026-04-20 12:32 32.99197 30.96108 34008 ft 452 kts 181°
2026-04-20 12:33 32.92946 30.96916 34010 ft 452 kts 181°
2026-04-20 12:33 32.86685 30.97645 34018 ft 451 kts 182°
2026-04-20 12:34 32.80435 30.98319 34008 ft 451 kts 182°
2026-04-20 12:34 32.74180 30.98997 34014 ft 451 kts 182°
2026-04-20 12:35 32.67933 30.99691 34230 ft 451 kts 182°
2026-04-20 12:35 32.64807 31.00040 34367 ft 452 kts 182°
2026-04-20 12:35 32.61672 31.00386 34491 ft 453 kts 182°
2026-04-20 12:36 32.58532 31.00730 34630 ft 453 kts 182°
2026-04-20 12:36 32.55390 31.01076 34780 ft 454 kts 182°
2026-04-20 12:36 32.52243 31.01425 34911 ft 454 kts 182°
2026-04-20 12:36 32.49091 31.01774 35058 ft 455 kts 182°
2026-04-20 12:37 32.45940 31.02124 35206 ft 455 kts 182°
2026-04-20 12:37 32.42787 31.02475 35345 ft 455 kts 182°
2026-04-20 12:37 32.39639 31.02826 35492 ft 455 kts 182°
2026-04-20 12:37 32.36487 31.03176 35609 ft 455 kts 182°
2026-04-20 12:38 32.33338 31.03525 35755 ft 455 kts 182°
2026-04-20 12:38 32.30188 31.03877 35922 ft 454 kts 182°
2026-04-20 12:38 32.23888 31.04577 36015 ft 455 kts 182°
2026-04-20 12:39 32.14437 31.05616 36014 ft 455 kts 182°
2026-04-20 12:40 32.08140 31.06313 36017 ft 455 kts 182°
2026-04-20 12:40 32.01835 31.06998 36016 ft 455 kts 182°
2026-04-20 12:41 31.95530 31.07669 36024 ft 455 kts 183°
2026-04-20 12:41 31.89216 31.08346 36031 ft 456 kts 182°
2026-04-20 12:42 31.83965 31.08915 36038 ft 456 kts 182°
2026-04-20 12:42 31.76618 31.09711 36041 ft 456 kts 182°
2026-04-20 12:43 31.70290 31.10383 36043 ft 457 kts 182°
2026-04-20 12:43 31.64990 31.10947 36011 ft 457 kts 183°
2026-04-20 12:44 31.58663 31.11620 36031 ft 457 kts 183°
2026-04-20 12:44 31.52332 31.12306 36041 ft 458 kts 182°
2026-04-20 12:45 31.46038 31.13340 36044 ft 462 kts 178°
2026-04-20 12:45 31.39705 31.14650 36018 ft 462 kts 178°
2026-04-20 12:46 31.33373 31.15934 36035 ft 461 kts 179°
2026-04-20 12:46 31.27035 31.17126 36041 ft 461 kts 179°
2026-04-20 12:47 31.20699 31.18279 36039 ft 461 kts 179°
2026-04-20 12:47 31.14362 31.19447 36005 ft 461 kts 179°
2026-04-20 12:48 31.08026 31.20627 36020 ft 461 kts 179°
2026-04-20 12:48 31.01690 31.21810 36022 ft 461 kts 179°
2026-04-20 12:49 30.95356 31.22980 36024 ft 461 kts 179°
2026-04-20 12:49 30.89022 31.24154 36005 ft 461 kts 179°
2026-04-20 12:50 30.82691 31.25336 36009 ft 460 kts 180°
2026-04-20 12:50 30.76363 31.26509 36022 ft 460 kts 180°
2026-04-20 12:51 30.70041 31.27668 36021 ft 460 kts 180°
2026-04-20 12:51 30.63721 31.28828 35997 ft 460 kts 180°
2026-04-20 12:52 30.57404 31.29993 36000 ft 460 kts 180°
2026-04-20 12:52 30.51090 31.31162 36008 ft 459 kts 180°
2026-04-20 12:53 30.44779 31.32329 36015 ft 459 kts 180°
2026-04-20 12:53 30.38465 31.33487 35976 ft 459 kts 180°
2026-04-20 12:54 30.32154 31.34644 35992 ft 459 kts 180°
2026-04-20 12:54 30.25837 31.35796 36000 ft 459 kts 180°
2026-04-20 12:55 30.19519 31.36944 36017 ft 460 kts 180°
2026-04-20 12:55 30.13217 31.38423 36000 ft 473 kts 169°
2026-04-20 12:55 30.10188 31.40034 36005 ft 487 kts 157°
2026-04-20 12:56 30.07415 31.42359 36005 ft 501 kts 144°
2026-04-20 12:56 30.05027 31.45343 36002 ft 512 kts 133°
2026-04-20 12:56 30.02928 31.48610 36002 ft 513 kts 132°
2026-04-20 12:57 29.98671 31.55227 35987 ft 514 kts 133°
2026-04-20 12:57 29.94392 31.61841 36017 ft 515 kts 133°
2026-04-20 12:58 29.90101 31.68459 36036 ft 516 kts 133°
2026-04-20 12:58 29.85832 31.75109 36042 ft 516 kts 133°
2026-04-20 12:59 29.81573 31.81774 36037 ft 517 kts 133°
2026-04-20 12:59 29.78017 31.89035 36038 ft 528 kts 114°
2026-04-20 13:00 29.76026 31.97223 36031 ft 532 kts 107°
2026-04-20 13:00 29.74201 32.05477 36034 ft 533 kts 107°
2026-04-20 13:01 29.72353 32.13733 36021 ft 533 kts 107°
2026-04-20 13:01 29.70505 32.21999 36017 ft 533 kts 107°
2026-04-20 13:02 29.68650 32.30259 36012 ft 533 kts 108°
2026-04-20 13:02 29.66792 32.38517 36008 ft 534 kts 108°
2026-04-20 13:03 29.64928 32.46781 36010 ft 534 kts 108°
2026-04-20 13:03 29.63057 32.55047 36005 ft 534 kts 108°
2026-04-20 13:04 29.61174 32.63305 35990 ft 534 kts 110°
2026-04-20 13:04 29.58213 32.70986 35992 ft 521 kts 129°
2026-04-20 13:05 29.53984 32.77648 35989 ft 515 kts 134°
2026-04-20 13:05 29.49669 32.84225 35965 ft 516 kts 134°
2026-04-20 13:06 29.45349 32.90812 35953 ft 517 kts 134°
2026-04-20 13:06 29.41014 32.97386 35970 ft 517 kts 134°
2026-04-20 13:07 29.36671 33.03961 35980 ft 517 kts 134°
2026-04-20 13:07 29.32321 33.10532 35988 ft 517 kts 134°
2026-04-20 13:08 29.27970 33.17104 35981 ft 518 kts 135°
2026-04-20 13:08 29.23614 33.23658 35979 ft 517 kts 135°
2026-04-20 13:08 29.21439 33.26935 35809 ft 516 kts 135°
2026-04-20 13:09 29.19276 33.30203 35213 ft 515 kts 134°
2026-04-20 13:09 29.17105 33.33474 34593 ft 515 kts 134°
2026-04-20 13:09 29.14940 33.36734 34008 ft 514 kts 134°
2026-04-20 13:09 29.12776 33.39983 33329 ft 513 kts 134°
2026-04-20 13:10 29.10613 33.43221 32656 ft 512 kts 134°
2026-04-20 13:10 29.08453 33.46455 32000 ft 510 kts 134°
2026-04-20 13:10 29.06309 33.49673 31407 ft 507 kts 134°
2026-04-20 13:10 29.04191 33.52848 31065 ft 499 kts 134°
2026-04-20 13:11 29.02086 33.55994 30495 ft 497 kts 134°
2026-04-20 13:11 28.99989 33.59118 29933 ft 494 kts 134°
2026-04-20 13:11 28.97904 33.62221 29338 ft 490 kts 134°
2026-04-20 13:11 28.95844 33.65293 28811 ft 485 kts 134°
2026-04-20 13:12 28.93807 33.68333 28287 ft 480 kts 133°
2026-04-20 13:12 28.91787 33.71346 27769 ft 474 kts 133°
2026-04-20 13:12 28.89792 33.74319 27269 ft 469 kts 133°
2026-04-20 13:12 28.87816 33.77257 26787 ft 464 kts 133°
2026-04-20 13:13 28.85856 33.80153 26303 ft 457 kts 135°
2026-04-20 13:13 28.83684 33.82719 25864 ft 443 kts 146°
2026-04-20 13:13 28.81340 33.84933 25458 ft 435 kts 147°
2026-04-20 13:13 28.79047 33.87088 25039 ft 430 kts 147°
2026-04-20 13:14 28.76723 33.89274 24628 ft 425 kts 147°
2026-04-20 13:14 28.74452 33.91410 24198 ft 422 kts 146°
2026-04-20 13:14 28.72197 33.93532 23746 ft 419 kts 146°
2026-04-20 13:14 28.69962 33.95638 23268 ft 415 kts 146°
2026-04-20 13:15 28.67781 33.97694 22908 ft 407 kts 146°
2026-04-20 13:15 28.65631 33.99722 22587 ft 399 kts 146°
2026-04-20 13:15 28.63475 34.01748 22104 ft 395 kts 146°
2026-04-20 13:15 28.61369 34.03724 21637 ft 391 kts 146°
2026-04-20 13:16 28.59276 34.05685 21175 ft 387 kts 146°
2026-04-20 13:16 28.57205 34.07627 20713 ft 384 kts 146°
2026-04-20 13:16 28.55153 34.09550 20256 ft 381 kts 146°
2026-04-20 13:16 28.53117 34.11454 19787 ft 378 kts 146°
2026-04-20 13:17 28.51091 34.13347 19335 ft 375 kts 145°
2026-04-20 13:17 28.48997 34.15035 18894 ft 364 kts 157°
2026-04-20 13:17 28.46689 34.16081 18480 ft 352 kts 171°
2026-04-20 13:17 28.44337 34.16466 18061 ft 341 kts 184°
2026-04-20 13:18 28.41987 34.16238 17643 ft 329 kts 197°
2026-04-20 13:18 28.39832 34.15512 17264 ft 319 kts 204°
2026-04-20 13:18 28.37776 34.14720 16886 ft 313 kts 204°
2026-04-20 13:18 28.35702 34.13929 16515 ft 308 kts 203°
2026-04-20 13:19 28.33710 34.13173 16150 ft 303 kts 204°
2026-04-20 13:19 28.31713 34.12415 15764 ft 302 kts 203°
2026-04-20 13:19 28.29725 34.11661 15363 ft 300 kts 202°
2026-04-20 13:19 28.27726 34.10903 14972 ft 298 kts 204°
2026-04-20 13:20 28.25796 34.10167 14612 ft 296 kts 204°
2026-04-20 13:20 28.23844 34.09421 14234 ft 296 kts 203°
2026-04-20 13:20 28.21868 34.08669 13851 ft 295 kts 203°
2026-04-20 13:20 28.19959 34.07943 13459 ft 292 kts 203°
2026-04-20 13:21 28.18011 34.07205 13080 ft 291 kts 202°
2026-04-20 13:21 28.16089 34.06475 12702 ft 290 kts 203°
2026-04-20 13:21 28.14184 34.05750 12320 ft 288 kts 204°
2026-04-20 13:21 28.12288 34.05030 11944 ft 287 kts 205°
2026-04-20 13:22 28.10399 34.04309 11567 ft 287 kts 205°
2026-04-20 13:22 28.08510 34.03591 11194 ft 285 kts 205°
2026-04-20 13:22 28.06620 34.02876 10822 ft 287 kts 201°
2026-04-20 13:22 28.04728 34.02162 10484 ft 287 kts 201°
2026-04-20 13:23 28.02823 34.01444 10194 ft 289 kts 201°
2026-04-20 13:23 28.00892 34.00712 10088 ft 297 kts 202°
2026-04-20 13:23 27.98922 33.99964 9841 ft 301 kts 203°
2026-04-20 13:23 27.96914 33.99201 9257 ft 307 kts 202°
2026-04-20 13:24 27.94903 33.98518 8825 ft 307 kts 191°
2026-04-20 13:24 27.92788 33.98674 8525 ft 306 kts 164°
2026-04-20 13:24 27.90944 33.99810 8022 ft 304 kts 137°
2026-04-20 13:24 27.89728 34.01721 7395 ft 301 kts 111°
2026-04-20 13:25 27.88939 34.03921 6803 ft 300 kts 110°
2026-04-20 13:25 27.88166 34.06079 6309 ft 295 kts 110°
2026-04-20 13:25 27.87399 34.08200 5832 ft 289 kts 111°
2026-04-20 13:25 27.86637 34.10295 5289 ft 287 kts 110°
2026-04-20 13:26 27.85881 34.12368 4802 ft 284 kts 109°
2026-04-20 13:26 27.85133 34.14417 4380 ft 277 kts 108°
2026-04-20 13:26 27.84419 34.16369 4318 ft 265 kts 110°
2026-04-20 13:26 27.83743 34.18221 4231 ft 248 kts 111°
2026-04-20 13:27 27.83136 34.20026 4046 ft 245 kts 100°
2026-04-20 13:27 27.82995 34.21866 3856 ft 228 kts 79°
2026-04-20 13:27 27.83356 34.23551 3653 ft 216 kts 63°
2026-04-20 13:27 27.83834 34.24541 3491 ft 208 kts 49°
2026-04-20 13:28 27.84801 34.25717 3268 ft 200 kts 37°
2026-04-20 13:28 27.85807 34.26764 3002 ft 194 kts 36°
2026-04-20 13:28 27.86775 34.27774 2744 ft 184 kts 37°
2026-04-20 13:28 27.87705 34.28740 2521 ft 179 kts 41°
2026-04-20 13:29 27.88586 34.29656 2302 ft 170 kts 40°
2026-04-20 13:29 27.89432 34.30536 2096 ft 163 kts 40°
2026-04-20 13:29 27.90237 34.31375 1871 ft 155 kts 40°
2026-04-20 13:29 27.91018 34.32187 1693 ft 151 kts 43°
2026-04-20 13:30 27.91784 34.32985 1489 ft 148 kts 42°
2026-04-20 13:30 27.92536 34.33771 1282 ft 147 kts 44°
2026-04-20 13:30 27.93281 34.34542 1066 ft 145 kts 42°
2026-04-20 13:30 27.94024 34.35315 839 ft 147 kts 44°
2026-04-20 13:31 27.94770 34.36091 718 ft 146 kts 44°
2026-04-20 13:31 27.95527 34.36876 541 ft 146 kts 45°
2026-04-20 13:31 27.96273 34.37661 362 ft 145 kts 44°
2026-04-20 13:31 27.97014 34.38428 162 ft 143 kts 45°
2026-04-20 13:32 27.97669 34.39121 136 ft 110 kts 43°
2026-04-20 13:32 27.98107 34.39579 139 ft 61 kts 43°
2026-04-20 13:32 27.98336 34.39818 137 ft 40 kts 42°
2026-04-20 13:32 27.98465 34.39951 138 ft 14 kts 42°
2026-04-20 13:33 27.98529 34.39964 138 ft 10 kts 328°
2026-04-20 13:33 27.98575 34.39910 139 ft 10 kts 309°
2026-04-20 13:33 27.98620 34.39850 139 ft 10 kts 308°